Simultaneous Nadir Overpasses (SNOs) Predictions

Prediction of SNOs between AQUA and METOP-B Satellite Orbit:

Table of predicted SNOs for the next 14.0 days since TLE Epoch: 4/1/2023
Index Date (AQUA) Time (AQUA) Lat,Lon (AQUA) SZA (AQUA ) Date (METOP-B) Time (METOP-B) Lat,Lon (METOP-B) SZA (METOP-B ) Distance(km) Time Diff (sec)
1 04/02/2023 19:49:13 -74.35, 58.22 110.73 04/02/2023 19:48:24 -74.32, 58.22 110.75 2.91 49
2 04/02/2023 20:38:40 74.42,-134.30 69.33 04/02/2023 20:39:02 74.42,-134.20 69.33 2.82 22
3 04/05/2023 13:42:25 -74.35, 149.94 111.78 04/05/2023 13:41:26 -74.34, 150.01 111.78 2.30 59
4 04/05/2023 14:31:51 74.38, -42.47 68.24 04/05/2023 14:32:05 74.39, -42.54 68.25 2.48 14
5 04/05/2023 15:21:28 -75.02, 123.54 111.09 04/05/2023 15:22:34 -75.00, 126.45 111.19 83.53 66
6 04/08/2023 07:35:34 -74.32,-118.23 112.86 04/08/2023 07:34:28 -74.35,-118.24 112.82 3.73 66
7 04/08/2023 08:25:01 74.40, 49.22 67.22 04/08/2023 08:25:07 74.39, 49.20 67.21 0.76 6
8 04/08/2023 09:14:32 -74.74,-143.97 112.44 04/08/2023 09:15:42 -74.72,-142.60 112.50 40.20 70
9 04/11/2023 01:28:42 -74.34, -26.54 113.86 04/11/2023 01:27:30 -74.34, -26.53 113.85 0.30 72
10 04/11/2023 02:18:08 74.37, 141.02 66.17 04/11/2023 02:18:09 74.38, 140.91 66.18 3.35 1
11 04/11/2023 03:07:35 -74.51, -51.65 113.71 04/11/2023 03:08:48 -74.51, -51.41 113.71 7.25 73
12 04/13/2023 19:21:45 -74.27, 65.39 114.95 04/13/2023 19:20:33 -74.21, 64.90 114.98 15.97 72
13 04/13/2023 20:11:13 74.41,-127.31 65.20 04/13/2023 20:11:09 74.40,-127.30 65.19 1.37 4



Historial Predications of SNOs between AQUA and METOP-B
